Regional Weather Roundup
Issued by NWS

Home | Current Version | Previous Version | Text Only | Print | Product List | Glossary On
Versions: 1 2 3 4 5 6 7 8 9 10 11 12 13 14 15 16 17 18 19 20 21 22 23 24 25 26 27 28 29 30 31 32 33 34 35 36 37 38 39 40 41 42 43 44 45 46 47 48 49 50
000
ASUS44 KFWD 280615
RWRTX
NORTH TEXAS HOURLY WEATHER ROUNDUP
NATIONAL WEATHER SERVICE FORT WORTH TX
100 AM CDT THU MAY 28 2015

NOTE: "FAIR" INDICATES FEW OR NO CLOUDS BELOW 12,000 FEET WITH NO
SIGNIFICANT WEATHER AND/OR OBSTRUCTIONS TO VISIBILITY.

TXZ118-119-280700-
DALLAS/FORT WORTH METROPLEX

CITY           SKY/WX    TMP DP  RH WIND       PRES   REMARKS
DFW AIRPORT    MOCLDY    72  70  93 E7        30.03S
6HR MIN TEMP:  71; 6HR MAX TEMP:  82; 6HR PCP: TRACE;

DALLAS LOVE    MOCLDY    77  71  82 SE10      30.04S
6HR MIN TEMP:  76; 6HR MAX TEMP:  84; 6HR PCP: TRACE;

FTW MEACHAM    PTCLDY    73  70  90 NE7       30.03R
6HR MIN TEMP:  70; 6HR MAX TEMP:  83; 6HR PCP:  1.21;

DAL-EXECUTIVE  PTCLDY    75  71  87 SE8       30.04S
6HR MIN TEMP:  74; 6HR MAX TEMP:  80; 6HR PCP: TRACE;

FTW-ALLIANCE   MOCLDY    71  70  96 CALM      30.03S
6HR MIN TEMP:  67; 6HR MAX TEMP:  83; 6HR PCP:  0.13;

FTW-NAS-JRB    PTCLDY    73  72  96 E5        30.03R
6HR MIN TEMP:  70; 6HR MAX TEMP:  85; 6HR PCP:  0.32;

FTW-SPINKS     PTCLDY    74  71  89 S6        30.04R
6HR MIN TEMP:  73; 6HR MAX TEMP:  81; 6HR PCP:  0.01;

ARLINGTON      PTCLDY    76  71  85 SE8       30.03R
6HR MIN TEMP:  74; 6HR MAX TEMP:  83;

GRAND PRAIRIE  PTCLDY    75  74  97 E5        30.05S
6HR MIN TEMP:  74; 6HR MAX TEMP:  83; 6HR PCP:  0.02;

ADDISON        CLOUDY    77  73  87 SE7       30.06S
6HR MIN TEMP:  77; 6HR MAX TEMP:  83;

MESQUITE       MOCLDY    74  71  92 E5        30.05S
6HR MIN TEMP:  73; 6HR MAX TEMP:  82;

LANCASTER      MOCLDY    74  70  85 SE3       30.05S
6HR MIN TEMP:  73; 6HR MAX TEMP:  79;

$$

TXZ091>094-102>105-117-120-121-131>134-280700-
NORTH CENTRAL TEXAS

CITY           SKY/WX    TMP DP  RH WIND       PRES   REMARKS
SHRMAN/DENISON CLOUDY    74  71  92 CALM      30.07S
6HR MIN TEMP:  73; 6HR MAX TEMP:  80;

GAINESVILLE    MOCLDY    68  64  88 CALM      30.07F
6HR MIN TEMP:  68; 6HR MAX TEMP:  80;

BOWIE          MOCLDY    67  67  99 SE3       30.05S
6HR MIN TEMP:  65; 6HR MAX TEMP:  79;

BRIDGEPORT     PTCLDY    67  67 100 E3        30.05S
6HR MIN TEMP:  67; 6HR MAX TEMP:  82;

DECATUR        MOCLDY    67  65  93 E6        30.05F
6HR MIN TEMP:  67; 6HR MAX TEMP:  81;

DENTON         CLOUDY    74  71  91 E6        30.04S
6HR MIN TEMP:  67; 6HR MAX TEMP:  85; 6HR PCP:  0.27;

MCKINNEY       MOCLDY    74  70  87 SE5       30.05S
6HR MIN TEMP:  74; 6HR MAX TEMP:  82;

GREENVILLE     CLOUDY    73  70  88 CALM      30.06S
ROCKWALL       MOCLDY   N/A N/A N/A SE3       30.05R
TERRELL        CLOUDY    76  71  85 SE5       30.06S
6HR MIN TEMP:  75; 6HR MAX TEMP:  82; 6HR PCP: TRACE;

WAXAHACHIE     FOG       73  73 100 SE7       30.04F VSB 1/4
CLEBURNE       PTCLDY    72  72 100 SE6       30.05R
GRANBURY         N/A     76  72  86 SE8       30.03S
6HR MIN TEMP:  75; 6HR MAX TEMP:  79;

$$

TXZ083>090-098>101-113>116-127>130-139>142-154-155-280700-
WESTERN NORTH TEXAS

CITY           SKY/WX    TMP DP  RH WIND       PRES   REMARKS
WICHITA FALLS  CLOUDY    69  64  84 S9        30.01F
6HR MIN TEMP:  69; 6HR MAX TEMP:  76;

WF-KICKAPOO    CLOUDY    73  66  78 SE6       30.03S
6HR MIN TEMP:  73; 6HR MAX TEMP:  80;

VERNON         CLOUDY    74  64  69 S8        30.04R
6HR MIN TEMP:  58; 6HR MAX TEMP:  88;

ABILENE        CLOUDY    74  70  87 SE17      30.05S
6HR MIN TEMP:  74; 6HR MAX TEMP:  85;

ABILENE-DYESS  CLOUDY    74  67  79 SE15      30.03S
6HR MIN TEMP:  74; 6HR MAX TEMP:  85;

BRECKENRIDGE   MOCLDY    76  71  83 S12G18    30.04R
6HR MIN TEMP:  75; 6HR MAX TEMP:  87;

GRAHAM         MOCLDY    71  70  98 SE3       30.01S
6HR MIN TEMP:  70; 6HR MAX TEMP:  82;

MINERAL WELLS  PTCLDY    71  70  96 SE9       30.01S
6HR MIN TEMP:  70; 6HR MAX TEMP:  76; 6HR PCP: TRACE;

STEPHENVILLE   MOCLDY    74  70  87 S7        30.06R
6HR MIN TEMP:  74; 6HR MAX TEMP:  79; 6HR PCP:  0.06;

COMANCHE       MOCLDY    74  74 100 S8        30.05S
6HR MIN TEMP:  73; 6HR MAX TEMP:  81;

BROWNWOOD      CLOUDY    73  72  94 S6        30.07R
COLEMAN        MOCLDY    73  72  96 S6        30.07R
6HR MIN TEMP:  73; 6HR MAX TEMP:  84;

BRADY          CLEAR     72  72 100 SE7       30.07R
$$

TXZ143>147-156>162-174-175-280700-
CENTRAL TEXAS

CITY           SKY/WX    TMP DP  RH WIND       PRES   REMARKS
WACO           CLOUDY    76  71  85 S14       30.03F
6HR MIN TEMP:  76; 6HR MAX TEMP:  84;

WACO-MCGREGOR    N/A    N/A N/A N/A MISG        N/A
HILLSBORO      MOCLDY   N/A N/A N/A SE9       30.04S
CORSICANA      CLOUDY    76  71  85 S10       30.05S
6HR MIN TEMP:  76; 6HR MAX TEMP:  77; 6HR PCP: TRACE;

MEXIA          MOCLDY    74  71  89 SE13G18   30.04S
6HR MIN TEMP:  74; 6HR MAX TEMP:  81; 6HR PCP:  0.07;

HEARNE         FAIR      75  72  91 SE5       30.06S
6HR MIN TEMP:  75; 6HR MAX TEMP:  82;

CAMERON        MOCLDY    75  72  89 S9        30.05S
6HR MIN TEMP:  75; 6HR MAX TEMP:  82;

TEMPLE         MOCLDY    73  68  83 S14       30.04S
6HR MIN TEMP:  73; 6HR MAX TEMP:  81;

KILLEEN        CLOUDY    73  71  94 SE12      30.04F
6HR MIN TEMP:  73; 6HR MAX TEMP:  80;

KILLEEN-SKYLRK MOCLDY    73  68  83 S12       30.05F
6HR MIN TEMP:  73; 6HR MAX TEMP:  81;

FORT HOOD      MOCLDY    73  72  94 S14       30.04F
6HR MIN TEMP:  74; 6HR MAX TEMP:  81;

GATESVILLE     MOCLDY    75  72  88 S7        30.06S
HAMILTON       CLOUDY    74  74 100 S14G20    30.06R
6HR MIN TEMP:  74; 6HR MAX TEMP:  83;

LAMPASAS       CLOUDY    76  73  91 SE7       30.06S
6HR MIN TEMP:  76; 6HR MAX TEMP:  81;

$$

TXZ095>097-106>112-122>126-135>138-148>153-164>167-280700-
EAST TEXAS

CITY           SKY/WX    TMP DP  RH WIND       PRES   REMARKS
PARIS          MOCLDY    73  64  73 SE6       30.07S
6HR MIN TEMP:  73; 6HR MAX TEMP:  82;

SULPHUR SPRNGS CLOUDY    73  72  94 SE5       30.09R
MOUNT PLEASANT CLOUDY    73  70  92 CALM      30.08S
6HR MIN TEMP:  73; 6HR MAX TEMP:  84;

GILMER         CLOUDY    75  73  92 CALM      30.07S
6HR MIN TEMP:  73; 6HR MAX TEMP:  86;

TYLER          CLOUDY    74  71  91 S5        30.06S
6HR MIN TEMP:  74; 6HR MAX TEMP:  82;

LONGVIEW       CLOUDY    75  72  90 SE3       30.06S
6HR MIN TEMP:  75; 6HR MAX TEMP:  82; 6HR PCP: TRACE;

MARSHALL       CLOUDY    73  71  92 CALM      30.10R
6HR MIN TEMP:  73; 6HR MAX TEMP:  89;

ATHENS         CLOUDY    73  70  88 CALM      30.05R
PALESTINE      MOCLDY    74  71  89 S5        30.06F
JACKSONVILLE   MOCLDY    74  71  88 SE5       30.09F
NACOGDOCHES    PTCLDY    73  72  94 CALM      30.07S
6HR MIN TEMP:  73; 6HR MAX TEMP:  84;

LUFKIN         PTCLDY    75  70  84 SE3       30.07S
6HR MIN TEMP:  75; 6HR MAX TEMP:  85;

$$

SUPPLEMENTAL OBSERVATIONS (CENTRAL)

CITY           SKY/WX    TMP DP  RH WIND       PRES   REMARKS
LAKE TEXOMA      N/A     73  68  83 SE5         N/A
CADDO GRASSLND   N/A     73  68  83 S3          N/A
PAT MAYSE LAKE   N/A     73  68  83 E8          N/A
ATHENS           N/A     75  70  83 SE3         N/A
LAKE LIMESTONE   N/A     75  70  83 S8          N/A
MCGREGOR         N/A     73  68  83 S12         N/A
TEMPLE           N/A     73  68  83 S10         N/A
$$

SUPPLEMENTAL OBSERVATIONS (WEST)

CITY           SKY/WX    TMP DP  RH WIND       PRES   REMARKS
MILLERS CREEK    N/A     73  70  88 S15         N/A
POSSUM KINGDOM   N/A     72  66  83 SE5         N/A
LBJ GRASSLAND    N/A     70  64  83 E6          N/A


USA.gov is the U.S. government's official web portal to all federal, state and local government web resources and services.